TimeEST,TemperatureF,Dew PointF,Humidity,Sea Level PressureIn,VisibilityMPH,Wind Direction,Wind SpeedMPH,Gust SpeedMPH,PrecipitationIn,Events,Conditions,WindDirDegrees,DateUTC
12:54 AM,60.1,51.1,72,30.18,10.0,WSW,3.5,-,N/A,,Clear,240,2012-12-05 05:54:00
1:54 AM,57.9,50.0,75,30.18,10.0,Calm,Calm,-,N/A,,Clear,0,2012-12-05 06:54:00
2:54 AM,55.9,48.9,77,30.18,10.0,Calm,Calm,-,N/A,,Scattered Clouds,0,2012-12-05 07:54:00
3:54 AM,60.1,51.1,72,30.16,10.0,SW,3.5,-,N/A,,Mostly Cloudy,230,2012-12-05 08:54:00
4:54 AM,60.1,51.1,72,30.15,10.0,WSW,5.8,-,N/A,,Mostly Cloudy,240,2012-12-05 09:54:00
5:54 AM,60.1,51.1,72,30.15,10.0,SW,3.5,-,N/A,,Overcast,230,2012-12-05 10:54:00
6:54 AM,57.9,51.1,78,30.17,10.0,Calm,Calm,-,N/A,,Overcast,0,2012-12-05 11:54:00
7:54 AM,57.9,51.1,78,30.19,10.0,SW,5.8,-,N/A,,Overcast,230,2012-12-05 12:54:00
9:54 AM,61.0,53.1,75,30.20,10.0,WSW,4.6,-,N/A,,Overcast,250,2012-12-05 14:54:00
10:54 AM,63.0,55.0,75,30.19,10.0,WSW,5.8,-,0.00,,Overcast,240,2012-12-05 15:54:00
11:54 AM,64.0,57.9,80,30.17,10.0,West,9.2,-,0.01,Rain,Light Rain,270,2012-12-05 16:54:00
12:54 PM,68.0,57.0,68,30.14,10.0,WNW,5.8,-,0.00,,Overcast,290,2012-12-05 17:54:00
1:54 PM,69.1,57.0,65,30.12,10.0,West,8.1,-,N/A,,Overcast,260,2012-12-05 18:54:00
2:54 PM,69.1,55.9,63,30.11,10.0,Variable,3.5,-,0.00,,Overcast,0,2012-12-05 19:54:00
3:54 PM,66.9,57.0,70,30.10,10.0,Calm,Calm,-,0.00,Rain,Light Rain,0,2012-12-05 20:54:00
4:54 PM,66.9,57.0,70,30.11,10.0,Calm,Calm,-,N/A,,Mostly Cloudy,0,2012-12-05 21:54:00
5:54 PM,66.0,55.9,70,30.12,10.0,Calm,Calm,-,N/A,,Clear,0,2012-12-05 22:54:00
6:54 PM,64.0,55.0,73,30.15,10.0,ENE,10.4,-,N/A,,Overcast,60,2012-12-05 23:54:00
7:54 PM,61.0,48.9,64,30.17,10.0,NE,8.1,-,N/A,,Overcast,50,2012-12-06 00:54:00
8:25 PM,60.8,48.2,63,30.19,10.0,ENE,5.8,-,N/A,,Overcast,60,2012-12-06 01:25:00
8:54 PM,60.1,48.9,67,30.18,10.0,NNE,5.8,-,N/A,,Overcast,30,2012-12-06 01:54:00
9:49 PM,59.0,50.0,72,30.19,10.0,NE,6.9,-,N/A,,Overcast,40,2012-12-06 02:49:00
9:54 PM,59.0,50.0,72,30.18,10.0,NE,9.2,-,N/A,,Overcast,50,2012-12-06 02:54:00
10:16 PM,57.2,50.0,77,30.19,10.0,NE,6.9,-,N/A,,Overcast,50,2012-12-06 03:16:00
10:54 PM,57.9,50.0,75,30.18,10.0,NE,4.6,-,N/A,,Overcast,40,2012-12-06 03:54:00
11:54 PM,59.0,48.0,67,30.18,10.0,NNE,4.6,-,N/A,,Overcast,30,2012-12-06 04:54:00